KLM99L EHAM-LPPR

Flight info

Callsign KLM99L
Flight time 2h 19m
Altitude 33000
Route WOODY N872 CIV/N0450F350 N872 MEDIL DCT KOVIN DCT NIDUV DCT KIHVI UN872 ERIGA UZ218 FUJTI DCT ATLEN DCT INSID T326 ASPOR
Aircraft B739/M-SDE2E3FGHIRWXY/LB1

Departure

Time 2026-04-17 11:10
Airport Amsterdam Airport Schiphol (EHAM)

Arrival

Time 2026-04-17 13:29
Airport Francisco de Sá Carneiro Airport (LPPR)
Time Latitude Longitude Altitude Speed Heading
2026-04-17 10:25 52.30467 4.76777 -2 ft 0 kts 322°
2026-04-17 11:00 52.30460 4.76785 -2 ft 4 kts 321°
2026-04-17 11:01 52.30442 4.76812 -2 ft 4 kts 311°
2026-04-17 11:01 52.30429 4.76845 -2 ft 4 kts 275°
2026-04-17 11:01 52.30430 4.76865 -2 ft 1 kts 248°
2026-04-17 11:05 52.30429 4.76864 -2 ft 0 kts 246°
2026-04-17 11:05 52.30424 4.76851 -2 ft 3 kts 238°
2026-04-17 11:06 52.30406 4.76806 -2 ft 6 kts 236°
2026-04-17 11:06 52.30381 4.76747 -2 ft 7 kts 229°
2026-04-17 11:06 52.30339 4.76726 -2 ft 7 kts 169°
2026-04-17 11:06 52.30311 4.76791 -2 ft 8 kts 88°
2026-04-17 11:07 52.30335 4.76881 -2 ft 10 kts 59°
2026-04-17 11:07 52.30372 4.76974 -2 ft 9 kts 59°
2026-04-17 11:07 52.30404 4.77061 -2 ft 9 kts 58°
2026-04-17 11:07 52.30441 4.77158 -2 ft 12 kts 58°
2026-04-17 11:08 52.30485 4.77274 -2 ft 12 kts 58°
2026-04-17 11:08 52.30528 4.77385 -2 ft 11 kts 58°
2026-04-17 11:08 52.30563 4.77484 -2 ft 9 kts 72°
2026-04-17 11:08 52.30535 4.77569 -2 ft 9 kts 147°
2026-04-17 11:09 52.30474 4.77617 -2 ft 9 kts 158°
2026-04-17 11:09 52.30425 4.77634 -2 ft 9 kts 197°
2026-04-17 11:09 52.30377 4.77541 -3 ft 12 kts 237°
2026-04-17 11:10 52.29939 4.76399 -5 ft 115 kts 238°
2026-04-17 11:10 52.29431 4.75082 -3 ft 157 kts 237°
2026-04-17 11:10 52.28808 4.73460 220 ft 171 kts 236°
2026-04-17 11:10 52.28163 4.71801 721 ft 177 kts 234°
2026-04-17 11:11 52.27470 4.70119 1457 ft 175 kts 234°
2026-04-17 11:11 52.26677 4.68634 2023 ft 180 kts 212°
2026-04-17 11:11 52.25420 4.68073 2207 ft 201 kts 176°
2026-04-17 11:11 52.24079 4.68991 2536 ft 216 kts 152°
2026-04-17 11:12 52.22741 4.70175 3036 ft 223 kts 156°
2026-04-17 11:12 52.21339 4.71343 3635 ft 228 kts 156°
2026-04-17 11:12 52.19867 4.72546 3990 ft 247 kts 156°
2026-04-17 11:12 52.18300 4.73814 4579 ft 253 kts 156°
2026-04-17 11:13 52.16683 4.74979 5262 ft 255 kts 166°
2026-04-17 11:13 52.14960 4.75625 5983 ft 255 kts 171°
2026-04-17 11:13 52.13217 4.76239 6670 ft 258 kts 169°
2026-04-17 11:13 52.11462 4.76892 7331 ft 259 kts 169°
2026-04-17 11:14 52.09691 4.77571 7878 ft 266 kts 169°
2026-04-17 11:14 52.07881 4.78283 8478 ft 268 kts 169°
2026-04-17 11:14 52.06052 4.78991 9078 ft 272 kts 169°
2026-04-17 11:14 52.04221 4.79699 9685 ft 275 kts 170°
2026-04-17 11:15 52.02356 4.80426 10306 ft 277 kts 170°
2026-04-17 11:15 52.00436 4.81153 10570 ft 292 kts 172°
2026-04-17 11:15 51.98379 4.81204 10740 ft 303 kts 194°
2026-04-17 11:15 51.96385 4.79936 10915 ft 316 kts 208°
2026-04-17 11:16 51.94370 4.78296 11072 ft 331 kts 207°
2026-04-17 11:16 51.92273 4.76629 11443 ft 339 kts 207°
2026-04-17 11:16 51.90138 4.74949 11963 ft 342 kts 207°
2026-04-17 11:16 51.87987 4.73266 12538 ft 344 kts 207°
2026-04-17 11:17 51.85820 4.71574 13115 ft 347 kts 207°
2026-04-17 11:17 51.83629 4.69866 13689 ft 350 kts 207°
2026-04-17 11:17 51.81427 4.68150 14244 ft 353 kts 207°
2026-04-17 11:17 51.79206 4.66421 14776 ft 356 kts 207°
2026-04-17 11:18 51.76995 4.64700 15298 ft 358 kts 207°
2026-04-17 11:18 51.74740 4.62947 15847 ft 361 kts 207°
2026-04-17 11:18 51.72463 4.61178 16369 ft 364 kts 207°
2026-04-17 11:18 51.70168 4.59398 16885 ft 367 kts 207°
2026-04-17 11:19 51.67855 4.57606 17391 ft 371 kts 207°
2026-04-17 11:19 51.65518 4.55798 17912 ft 374 kts 207°
2026-04-17 11:19 51.63158 4.53972 18489 ft 377 kts 207°
2026-04-17 11:19 51.60776 4.52129 19019 ft 381 kts 208°
2026-04-17 11:20 51.58383 4.50280 19559 ft 381 kts 208°
2026-04-17 11:20 51.55999 4.48441 20235 ft 379 kts 208°
2026-04-17 11:20 51.53618 4.46605 20727 ft 382 kts 208°
2026-04-17 11:20 51.51208 4.44747 21246 ft 382 kts 208°
2026-04-17 11:21 51.48866 4.42947 22039 ft 376 kts 208°
2026-04-17 11:21 51.46494 4.41123 22481 ft 380 kts 208°
2026-04-17 11:21 51.44087 4.39273 22874 ft 386 kts 208°
2026-04-17 11:21 51.41655 4.37408 23381 ft 389 kts 208°
2026-04-17 11:22 51.39195 4.35536 23907 ft 392 kts 208°
2026-04-17 11:22 51.36716 4.33682 24294 ft 395 kts 208°
2026-04-17 11:22 51.34221 4.31826 24715 ft 397 kts 208°
2026-04-17 11:22 51.31706 4.29954 25123 ft 399 kts 208°
2026-04-17 11:23 51.29190 4.28060 25495 ft 401 kts 208°
2026-04-17 11:23 51.26652 4.26124 25871 ft 404 kts 208°
2026-04-17 11:23 51.24111 4.24182 26205 ft 407 kts 208°
2026-04-17 11:23 51.21577 4.22251 26534 ft 410 kts 208°
2026-04-17 11:24 51.18989 4.20286 26897 ft 412 kts 208°
2026-04-17 11:24 51.16388 4.18334 27257 ft 415 kts 207°
2026-04-17 11:24 51.13679 4.16668 27610 ft 419 kts 203°
2026-04-17 11:24 51.10902 4.15168 27951 ft 422 kts 202°
2026-04-17 11:25 51.08102 4.13701 28287 ft 424 kts 202°
2026-04-17 11:25 51.05295 4.12223 28617 ft 427 kts 202°
2026-04-17 11:25 51.02471 4.10714 28948 ft 429 kts 202°
2026-04-17 11:25 50.99643 4.09185 29269 ft 431 kts 202°
2026-04-17 11:26 50.96797 4.07637 29590 ft 433 kts 203°
2026-04-17 11:26 50.93942 4.06082 29890 ft 435 kts 203°
2026-04-17 11:26 50.91070 4.04520 30197 ft 437 kts 203°
2026-04-17 11:26 50.88183 4.02951 30456 ft 439 kts 203°
2026-04-17 11:27 50.85318 4.01265 30693 ft 440 kts 205°
2026-04-17 11:27 50.82514 3.99472 30971 ft 440 kts 206°
2026-04-17 11:27 50.79691 3.97618 31317 ft 439 kts 206°
2026-04-17 11:27 50.76864 3.95761 31608 ft 439 kts 206°
2026-04-17 11:28 50.74029 3.93915 31877 ft 440 kts 206°
2026-04-17 11:28 50.71195 3.92090 32198 ft 440 kts 206°
2026-04-17 11:28 50.68361 3.90277 32539 ft 439 kts 206°
2026-04-17 11:28 50.65530 3.88472 32808 ft 440 kts 206°
2026-04-17 11:29 50.62686 3.86660 32987 ft 442 kts 206°
2026-04-17 11:29 50.59830 3.84844 33169 ft 444 kts 206°
2026-04-17 11:29 50.56956 3.83016 33378 ft 445 kts 206°
2026-04-17 11:29 50.54102 3.81120 33622 ft 445 kts 207°
2026-04-17 11:30 50.51264 3.79171 33905 ft 444 kts 208°
2026-04-17 11:30 50.48439 3.77216 34189 ft 444 kts 208°
2026-04-17 11:30 50.45647 3.75292 34412 ft 443 kts 208°
2026-04-17 11:30 50.42816 3.73353 34620 ft 444 kts 207°
2026-04-17 11:31 50.39982 3.71423 34835 ft 443 kts 207°
2026-04-17 11:31 50.37155 3.69503 35062 ft 443 kts 207°
2026-04-17 11:31 50.34334 3.67593 35217 ft 439 kts 207°
2026-04-17 11:31 50.31524 3.65692 35221 ft 441 kts 207°
2026-04-17 11:32 50.25855 3.61860 35245 ft 447 kts 207°
2026-04-17 11:32 50.20133 3.58001 35232 ft 449 kts 207°
2026-04-17 11:33 50.14395 3.54144 35231 ft 449 kts 207°
2026-04-17 11:33 50.08650 3.50292 35226 ft 449 kts 207°
2026-04-17 11:34 50.02941 3.46473 35234 ft 449 kts 207°
2026-04-17 11:34 49.97194 3.42638 35233 ft 449 kts 207°
2026-04-17 11:35 49.91450 3.38815 35222 ft 449 kts 207°
2026-04-17 11:35 49.85709 3.35003 35229 ft 448 kts 206°
2026-04-17 11:36 49.79964 3.31200 35232 ft 448 kts 206°
2026-04-17 11:36 49.74226 3.27410 35239 ft 448 kts 206°
2026-04-17 11:37 49.68525 3.23654 35211 ft 448 kts 206°
2026-04-17 11:37 49.62782 3.19880 35230 ft 449 kts 206°
2026-04-17 11:38 49.56988 3.16080 35237 ft 455 kts 206°
2026-04-17 11:38 49.52141 3.12851 35228 ft 454 kts 211°
2026-04-17 11:39 49.48785 3.09198 35244 ft 442 kts 227°
2026-04-17 11:39 49.46751 3.05697 35228 ft 437 kts 237°
2026-04-17 11:39 49.43714 2.97673 35231 ft 434 kts 243°
2026-04-17 11:40 49.41273 2.90948 35244 ft 435 kts 243°
2026-04-17 11:40 49.38267 2.82847 35238 ft 437 kts 242°
2026-04-17 11:41 49.35225 2.74732 35240 ft 439 kts 242°
2026-04-17 11:41 49.32242 2.66534 35240 ft 441 kts 244°
2026-04-17 11:42 49.29353 2.58239 35232 ft 441 kts 244°
2026-04-17 11:42 49.27900 2.54081 35023 ft 444 kts 243°
2026-04-17 11:42 49.26457 2.49979 34776 ft 443 kts 243°
2026-04-17 11:43 49.24978 2.45797 34527 ft 440 kts 243°
2026-04-17 11:43 49.23540 2.41741 34292 ft 439 kts 243°
2026-04-17 11:43 49.22081 2.37631 34032 ft 440 kts 243°
2026-04-17 11:43 49.20617 2.33515 33749 ft 440 kts 243°
2026-04-17 11:44 49.19146 2.29406 33480 ft 441 kts 243°
2026-04-17 11:44 49.17645 2.25313 33270 ft 441 kts 242°
2026-04-17 11:44 49.14614 2.17139 33215 ft 443 kts 242°
2026-04-17 11:45 49.11588 2.08968 33201 ft 441 kts 242°
2026-04-17 11:45 49.08673 2.00743 33211 ft 439 kts 246°
2026-04-17 11:46 49.06154 1.92342 33194 ft 438 kts 247°
2026-04-17 11:46 49.03645 1.83855 33238 ft 439 kts 246°
2026-04-17 11:47 49.01107 1.75380 33249 ft 440 kts 246°
2026-04-17 11:47 48.98542 1.66900 33229 ft 441 kts 246°
2026-04-17 11:48 48.95963 1.58418 33244 ft 442 kts 246°
2026-04-17 11:48 48.93372 1.49927 33229 ft 442 kts 245°
2026-04-17 11:49 48.90777 1.41447 33239 ft 442 kts 245°
2026-04-17 11:49 48.88177 1.32980 33243 ft 442 kts 245°
2026-04-17 11:50 48.85571 1.24522 33232 ft 441 kts 245°
2026-04-17 11:50 48.82984 1.16155 33233 ft 440 kts 245°
2026-04-17 11:51 48.80380 1.07761 33237 ft 438 kts 245°
2026-04-17 11:51 48.77776 0.99391 33232 ft 438 kts 245°
2026-04-17 11:52 48.75188 0.91102 33226 ft 437 kts 245°
2026-04-17 11:52 48.72277 0.83022 33241 ft 437 kts 238°
2026-04-17 11:53 48.69054 0.75225 33235 ft 436 kts 238°
2026-04-17 11:53 48.65839 0.67456 33232 ft 435 kts 238°
2026-04-17 11:54 48.62649 0.59662 33229 ft 435 kts 238°
2026-04-17 11:54 48.59475 0.51880 33241 ft 435 kts 238°
2026-04-17 11:55 48.56307 0.44128 33243 ft 436 kts 238°
2026-04-17 11:55 48.53112 0.36335 33231 ft 437 kts 238°
2026-04-17 11:56 48.49907 0.28541 33234 ft 437 kts 238°
2026-04-17 11:56 48.46694 0.20752 33238 ft 437 kts 238°
2026-04-17 11:57 48.43482 0.12987 33232 ft 437 kts 238°
2026-04-17 11:57 48.40262 0.05223 33247 ft 437 kts 238°
2026-04-17 11:58 48.37034 -0.02536 33245 ft 437 kts 237°
2026-04-17 11:58 48.33545 -0.10019 33248 ft 436 kts 232°
2026-04-17 11:59 48.29881 -0.17235 33223 ft 436 kts 232°
2026-04-17 11:59 48.26242 -0.24501 33230 ft 435 kts 233°
2026-04-17 12:00 48.22587 -0.31735 33233 ft 434 kts 232°
2026-04-17 12:00 48.18906 -0.38922 33227 ft 434 kts 232°
2026-04-17 12:01 48.15224 -0.46101 33219 ft 434 kts 232°
2026-04-17 12:01 48.11564 -0.53229 33211 ft 434 kts 232°
2026-04-17 12:02 48.07880 -0.60390 33213 ft 434 kts 232°
2026-04-17 12:02 48.04188 -0.67547 33209 ft 435 kts 232°
2026-04-17 12:03 48.00489 -0.74700 33199 ft 435 kts 232°
2026-04-17 12:03 47.96786 -0.81842 33209 ft 435 kts 232°
2026-04-17 12:04 47.93069 -0.88992 33225 ft 435 kts 232°
2026-04-17 12:04 47.89377 -0.96075 33217 ft 435 kts 231°
2026-04-17 12:05 47.85661 -1.03186 33215 ft 435 kts 231°
2026-04-17 12:05 47.81942 -1.10283 33216 ft 434 kts 231°
2026-04-17 12:06 47.78217 -1.17375 33190 ft 434 kts 232°
2026-04-17 12:06 47.74496 -1.24440 33202 ft 434 kts 231°
2026-04-17 12:07 47.70771 -1.31495 33221 ft 434 kts 231°
2026-04-17 12:07 47.67048 -1.38529 33203 ft 433 kts 231°
2026-04-17 12:08 47.63321 -1.45555 33203 ft 433 kts 231°
2026-04-17 12:08 47.59574 -1.52555 33209 ft 433 kts 230°
2026-04-17 12:09 47.55614 -1.59177 33197 ft 432 kts 228°
2026-04-17 12:09 47.51550 -1.65740 33207 ft 432 kts 228°
2026-04-17 12:10 47.47509 -1.72321 33207 ft 431 kts 228°
2026-04-17 12:10 47.43490 -1.78893 33194 ft 430 kts 228°
2026-04-17 12:11 47.39476 -1.85450 33199 ft 429 kts 228°
2026-04-17 12:12 47.33079 -1.94654 33186 ft 431 kts 215°
2026-04-17 12:12 47.27971 -1.99190 33183 ft 431 kts 213°
2026-04-17 12:13 47.22823 -2.03716 33187 ft 431 kts 213°
2026-04-17 12:13 47.17685 -2.08272 33205 ft 431 kts 213°
2026-04-17 12:14 47.12558 -2.12832 33185 ft 430 kts 214°
2026-04-17 12:14 47.07447 -2.17371 33201 ft 429 kts 214°
2026-04-17 12:15 47.02344 -2.21890 33205 ft 428 kts 214°
2026-04-17 12:15 46.97240 -2.26400 33213 ft 428 kts 214°
2026-04-17 12:16 46.92171 -2.30870 33203 ft 428 kts 214°
2026-04-17 12:16 46.87068 -2.35360 33213 ft 428 kts 214°
2026-04-17 12:17 46.81957 -2.39847 33211 ft 428 kts 214°
2026-04-17 12:17 46.76855 -2.44322 33226 ft 428 kts 214°
2026-04-17 12:18 46.71747 -2.48794 33224 ft 428 kts 214°
2026-04-17 12:18 46.66645 -2.53251 33212 ft 427 kts 214°
2026-04-17 12:19 46.61549 -2.57693 33212 ft 426 kts 214°
2026-04-17 12:19 46.56492 -2.62091 33215 ft 426 kts 214°
2026-04-17 12:20 46.51405 -2.66506 33203 ft 426 kts 214°
2026-04-17 12:20 46.46317 -2.70912 33213 ft 426 kts 214°
2026-04-17 12:21 46.41228 -2.75309 33215 ft 426 kts 214°
2026-04-17 12:21 46.36132 -2.79704 33215 ft 426 kts 214°
2026-04-17 12:22 46.31030 -2.84095 33205 ft 426 kts 214°
2026-04-17 12:22 46.25992 -2.88570 33210 ft 423 kts 219°
2026-04-17 12:23 46.21508 -2.94021 33215 ft 421 kts 223°
2026-04-17 12:23 46.17056 -2.99520 33217 ft 421 kts 223°
2026-04-17 12:24 46.12591 -3.04987 33197 ft 421 kts 222°
2026-04-17 12:24 46.08147 -3.10397 33212 ft 421 kts 222°
2026-04-17 12:25 46.03670 -3.15827 33219 ft 421 kts 222°
2026-04-17 12:25 45.99181 -3.21260 33226 ft 421 kts 222°
2026-04-17 12:26 45.94691 -3.26681 33217 ft 421 kts 222°
2026-04-17 12:26 45.90231 -3.32055 33217 ft 420 kts 222°
2026-04-17 12:27 45.85747 -3.37447 33225 ft 420 kts 222°
2026-04-17 12:27 45.81264 -3.42826 33222 ft 420 kts 222°
2026-04-17 12:28 45.77532 -3.47295 33229 ft 420 kts 222°
2026-04-17 12:28 45.73042 -3.52661 33228 ft 420 kts 222°
2026-04-17 12:29 45.68552 -3.58014 33219 ft 420 kts 222°
2026-04-17 12:29 45.64070 -3.63348 33229 ft 419 kts 222°
2026-04-17 12:30 45.59597 -3.68658 33225 ft 419 kts 222°
2026-04-17 12:30 45.55113 -3.73971 33226 ft 419 kts 221°
2026-04-17 12:31 45.50623 -3.79279 33220 ft 419 kts 221°
2026-04-17 12:31 45.46136 -3.84573 33227 ft 419 kts 221°
2026-04-17 12:32 45.41644 -3.89860 33247 ft 419 kts 221°
2026-04-17 12:32 45.37153 -3.95136 33226 ft 418 kts 221°
2026-04-17 12:33 45.32688 -4.00370 33223 ft 418 kts 221°
2026-04-17 12:33 45.28202 -4.05618 33218 ft 417 kts 221°
2026-04-17 12:34 45.23718 -4.10851 33216 ft 417 kts 221°
2026-04-17 12:34 45.19232 -4.16077 33215 ft 417 kts 221°
2026-04-17 12:35 45.14725 -4.21317 33231 ft 422 kts 221°
2026-04-17 12:35 45.10150 -4.26624 33214 ft 426 kts 221°
2026-04-17 12:37 44.91948 -4.47622 33213 ft 417 kts 221°
2026-04-17 12:38 44.87446 -4.52790 33223 ft 417 kts 221°
2026-04-17 12:38 44.82971 -4.57916 33235 ft 418 kts 221°
2026-04-17 12:39 44.78455 -4.63078 33214 ft 419 kts 221°
2026-04-17 12:39 44.73921 -4.68249 33218 ft 420 kts 221°
2026-04-17 12:40 44.69379 -4.73418 33225 ft 420 kts 221°
2026-04-17 12:40 44.64830 -4.78586 33220 ft 420 kts 221°
2026-04-17 12:41 44.60279 -4.83746 33216 ft 420 kts 220°
2026-04-17 12:41 44.55727 -4.88897 33220 ft 420 kts 220°
2026-04-17 12:42 44.51200 -4.94008 33226 ft 420 kts 220°
2026-04-17 12:42 44.46527 -4.98934 33226 ft 421 kts 218°
2026-04-17 12:43 44.41748 -5.03679 33224 ft 421 kts 217°
2026-04-17 12:43 44.36974 -5.08412 33225 ft 420 kts 217°
2026-04-17 12:44 44.32208 -5.13162 33213 ft 420 kts 217°
2026-04-17 12:44 44.27450 -5.17912 33210 ft 420 kts 217°
2026-04-17 12:45 44.22715 -5.22635 33217 ft 420 kts 217°
2026-04-17 12:45 44.17949 -5.27380 33214 ft 421 kts 217°
2026-04-17 12:46 44.13174 -5.32124 33214 ft 421 kts 217°
2026-04-17 12:46 44.08398 -5.36858 33211 ft 421 kts 217°
2026-04-17 12:47 44.03663 -5.41542 33223 ft 420 kts 217°
2026-04-17 12:47 43.98897 -5.46248 33210 ft 420 kts 217°
2026-04-17 12:48 43.94133 -5.50942 33206 ft 420 kts 217°
2026-04-17 12:48 43.89368 -5.55628 33197 ft 419 kts 217°
2026-04-17 12:49 43.84608 -5.60299 33203 ft 419 kts 217°
2026-04-17 12:49 43.79844 -5.64965 33208 ft 419 kts 217°
2026-04-17 12:50 43.75077 -5.69625 33208 ft 420 kts 217°
2026-04-17 12:50 43.70307 -5.74279 33212 ft 420 kts 217°
2026-04-17 12:51 43.65536 -5.78923 33194 ft 419 kts 217°
2026-04-17 12:51 43.60795 -5.83530 33201 ft 419 kts 217°
2026-04-17 12:52 43.56024 -5.88157 33210 ft 419 kts 217°
2026-04-17 12:52 43.51240 -5.92788 33209 ft 419 kts 217°
2026-04-17 12:53 43.46465 -5.97400 33201 ft 419 kts 217°
2026-04-17 12:53 43.41677 -6.02017 33205 ft 419 kts 217°
2026-04-17 12:54 43.36913 -6.06601 33207 ft 421 kts 217°
2026-04-17 12:54 43.32112 -6.11211 33186 ft 421 kts 217°
2026-04-17 12:55 43.27313 -6.15810 33168 ft 421 kts 217°
2026-04-17 12:55 43.22508 -6.20405 33161 ft 421 kts 216°
2026-04-17 12:56 43.17703 -6.24993 33158 ft 421 kts 216°
2026-04-17 12:56 43.12882 -6.29587 33144 ft 423 kts 216°
2026-04-17 12:57 43.08049 -6.34182 33130 ft 422 kts 216°
2026-04-17 12:57 43.03261 -6.38726 33129 ft 421 kts 216°
2026-04-17 12:58 42.98446 -6.43287 33129 ft 421 kts 216°
2026-04-17 12:58 42.93627 -6.47843 33139 ft 421 kts 216°
2026-04-17 12:59 42.88798 -6.52399 33121 ft 422 kts 216°
2026-04-17 12:59 42.83970 -6.56947 33129 ft 422 kts 216°
2026-04-17 13:00 42.79166 -6.61462 33124 ft 422 kts 216°
2026-04-17 13:00 42.74325 -6.66003 33130 ft 423 kts 216°
2026-04-17 13:01 42.69477 -6.70543 33133 ft 423 kts 216°
2026-04-17 13:01 42.64621 -6.75081 33116 ft 423 kts 216°
2026-04-17 13:02 42.59762 -6.79613 33128 ft 423 kts 216°
2026-04-17 13:02 42.54894 -6.84145 33122 ft 424 kts 216°
2026-04-17 13:03 42.50065 -6.88633 33124 ft 424 kts 216°
2026-04-17 13:03 42.45341 -6.93013 33129 ft 423 kts 216°
2026-04-17 13:04 42.40489 -6.97505 33127 ft 422 kts 216°
2026-04-17 13:04 42.35643 -7.01985 33128 ft 421 kts 216°
2026-04-17 13:05 42.30831 -7.06427 33130 ft 422 kts 217°
2026-04-17 13:05 42.26577 -7.11832 33142 ft 420 kts 231°
2026-04-17 13:06 42.23364 -7.18441 33141 ft 421 kts 238°
2026-04-17 13:06 42.20320 -7.25132 33157 ft 421 kts 237°
2026-04-17 13:07 42.17234 -7.31851 33124 ft 421 kts 237°
2026-04-17 13:07 42.14132 -7.38555 33124 ft 421 kts 237°
2026-04-17 13:08 42.11041 -7.45212 33141 ft 421 kts 237°
2026-04-17 13:08 42.09478 -7.48571 32839 ft 426 kts 237°
2026-04-17 13:08 42.07889 -7.51980 31956 ft 426 kts 237°
2026-04-17 13:08 42.06337 -7.55309 31523 ft 415 kts 237°
2026-04-17 13:09 42.04809 -7.58585 30933 ft 411 kts 237°
2026-04-17 13:09 42.03295 -7.61824 30365 ft 407 kts 237°
2026-04-17 13:09 42.01797 -7.65027 29723 ft 403 kts 237°
2026-04-17 13:09 42.00311 -7.68202 29129 ft 398 kts 237°
2026-04-17 13:10 41.98847 -7.71324 28561 ft 393 kts 237°
2026-04-17 13:10 41.97397 -7.74416 27999 ft 389 kts 237°
2026-04-17 13:10 41.95976 -7.77441 27439 ft 388 kts 237°
2026-04-17 13:10 41.94515 -7.80550 26880 ft 389 kts 237°
2026-04-17 13:11 41.93066 -7.83627 26316 ft 389 kts 237°
2026-04-17 13:11 41.91647 -7.86640 25763 ft 385 kts 237°
2026-04-17 13:11 41.90221 -7.89665 25204 ft 382 kts 236°
2026-04-17 13:11 41.88807 -7.92662 24652 ft 379 kts 236°
2026-04-17 13:12 41.87397 -7.95647 24067 ft 377 kts 236°
2026-04-17 13:12 41.84598 -8.01563 22870 ft 373 kts 236°
2026-04-17 13:12 41.83190 -8.04469 22324 ft 368 kts 232°
2026-04-17 13:13 41.81449 -8.06941 21816 ft 362 kts 220°
2026-04-17 13:13 41.79419 -8.08922 21291 ft 360 kts 212°
2026-04-17 13:13 41.77169 -8.10366 20777 ft 357 kts 202°
2026-04-17 13:13 41.74874 -8.11514 20268 ft 355 kts 202°
2026-04-17 13:14 41.72554 -8.12647 19765 ft 355 kts 202°
2026-04-17 13:14 41.70235 -8.13777 19243 ft 355 kts 202°
2026-04-17 13:14 41.67917 -8.14912 18740 ft 353 kts 202°
2026-04-17 13:14 41.65612 -8.16047 18196 ft 352 kts 202°
2026-04-17 13:15 41.63321 -8.17179 17637 ft 350 kts 202°
2026-04-17 13:15 41.61044 -8.18307 17103 ft 348 kts 202°
2026-04-17 13:15 41.58785 -8.19429 16603 ft 345 kts 202°
2026-04-17 13:15 41.56539 -8.20544 16100 ft 343 kts 202°
2026-04-17 13:16 41.54307 -8.21653 15605 ft 342 kts 202°
2026-04-17 13:16 41.52081 -8.22758 15103 ft 340 kts 202°
2026-04-17 13:16 41.49872 -8.23853 14621 ft 339 kts 202°
2026-04-17 13:16 41.47655 -8.24953 14009 ft 341 kts 202°
2026-04-17 13:17 41.45420 -8.26061 13420 ft 342 kts 202°
2026-04-17 13:17 41.43218 -8.27151 12887 ft 341 kts 201°
2026-04-17 13:17 41.41721 -8.27891 12542 ft 340 kts 201°
2026-04-17 13:17 41.38796 -8.29337 11882 ft 337 kts 201°
2026-04-17 13:18 41.36608 -8.30417 11497 ft 332 kts 201°
2026-04-17 13:18 41.34481 -8.31466 11352 ft 320 kts 201°
2026-04-17 13:18 41.32425 -8.32479 11211 ft 309 kts 201°
2026-04-17 13:18 41.30437 -8.33458 11075 ft 299 kts 201°
2026-04-17 13:19 41.29157 -8.34088 10992 ft 293 kts 201°
2026-04-17 13:19 41.27276 -8.35015 10821 ft 285 kts 201°
2026-04-17 13:19 41.25395 -8.35942 10382 ft 288 kts 201°
2026-04-17 13:19 41.23508 -8.36871 9979 ft 289 kts 201°
2026-04-17 13:20 41.21621 -8.37800 9571 ft 289 kts 201°
2026-04-17 13:20 41.19764 -8.38711 9194 ft 280 kts 201°
2026-04-17 13:20 41.17957 -8.39598 8852 ft 272 kts 201°
2026-04-17 13:20 41.16192 -8.40464 8526 ft 270 kts 201°
2026-04-17 13:21 41.14424 -8.41331 8192 ft 271 kts 201°
2026-04-17 13:21 41.12658 -8.42197 7857 ft 270 kts 201°
2026-04-17 13:21 41.10896 -8.43060 7530 ft 269 kts 201°
2026-04-17 13:21 41.09137 -8.43922 7204 ft 270 kts 201°
2026-04-17 13:22 41.07378 -8.44783 6864 ft 269 kts 201°
2026-04-17 13:22 41.05637 -8.45632 6523 ft 263 kts 201°
2026-04-17 13:22 41.03944 -8.46459 6170 ft 256 kts 201°
2026-04-17 13:22 41.02275 -8.47280 5845 ft 256 kts 203°
2026-04-17 13:23 41.00829 -8.48613 5500 ft 257 kts 229°
2026-04-17 13:23 40.99967 -8.50663 5302 ft 253 kts 250°
2026-04-17 13:23 40.99567 -8.52894 5219 ft 246 kts 256°
2026-04-17 13:23 40.99256 -8.55100 5093 ft 240 kts 257°
2026-04-17 13:24 40.98960 -8.57235 4985 ft 230 kts 258°
2026-04-17 13:24 40.99061 -8.59266 4852 ft 224 kts 288°
2026-04-17 13:24 40.99946 -8.60951 4730 ft 225 kts 316°
2026-04-17 13:24 41.01318 -8.61967 4421 ft 232 kts 343°
2026-04-17 13:25 41.02886 -8.62405 4126 ft 228 kts 348°
2026-04-17 13:25 41.04425 -8.62806 3887 ft 223 kts 348°
2026-04-17 13:25 41.05937 -8.63203 3627 ft 220 kts 348°
2026-04-17 13:25 41.07419 -8.63588 3330 ft 214 kts 348°
2026-04-17 13:26 41.08860 -8.63961 3092 ft 207 kts 349°
2026-04-17 13:26 41.10267 -8.64324 2797 ft 204 kts 348°
2026-04-17 13:26 41.11643 -8.64682 2566 ft 198 kts 348°
2026-04-17 13:26 41.12976 -8.65029 2337 ft 194 kts 348°
2026-04-17 13:27 41.14286 -8.65370 2083 ft 188 kts 348°
2026-04-17 13:27 41.15527 -8.65695 1847 ft 176 kts 347°
2026-04-17 13:27 41.16667 -8.65992 1639 ft 160 kts 347°
2026-04-17 13:27 41.17754 -8.66278 1412 ft 155 kts 346°
2026-04-17 13:28 41.18776 -8.66548 1173 ft 146 kts 348°
2026-04-17 13:28 41.19771 -8.66767 920 ft 144 kts 348°
2026-04-17 13:28 41.20763 -8.67025 786 ft 153 kts 345°
2026-04-17 13:28 41.21803 -8.67332 597 ft 151 kts 343°
2026-04-17 13:29 41.22822 -8.67617 407 ft 149 kts 347°
2026-04-17 13:29 41.23824 -8.67870 236 ft 142 kts 346°
2026-04-17 13:29 41.24671 -8.68094 211 ft 97 kts 349°
2026-04-17 13:29 41.25067 -8.68177 183 ft 40 kts
2026-04-17 13:30 41.25242 -8.68120 179 ft 14 kts 19°
2026-04-17 13:30 41.25293 -8.68059 179 ft 8 kts 90°
2026-04-17 13:30 41.25267 -8.68022 181 ft 5 kts 150°
2026-04-17 13:30 41.25205 -8.67999 190 ft 10 kts 168°
2026-04-17 13:31 41.25146 -8.67983 187 ft 7 kts 169°
2026-04-17 13:31 41.25093 -8.67969 188 ft 9 kts 169°
2026-04-17 13:31 41.25016 -8.67949 204 ft 13 kts 169°
2026-04-17 13:31 41.24913 -8.67922 205 ft 16 kts 167°
2026-04-17 13:32 41.24822 -8.67868 205 ft 12 kts 149°
2026-04-17 13:32 41.24752 -8.67827 208 ft 10 kts 163°
2026-04-17 13:32 41.24661 -8.67801 213 ft 16 kts 169°
2026-04-17 13:32 41.24532 -8.67768 217 ft 20 kts 168°
2026-04-17 13:33 41.24392 -8.67731 225 ft 19 kts 169°
2026-04-17 13:33 41.24287 -8.67674 231 ft 14 kts 133°
2026-04-17 13:33 41.24233 -8.67595 236 ft 9 kts 144°
2026-04-17 13:33 41.24168 -8.67566 237 ft 12 kts 168°
2026-04-17 13:34 41.24082 -8.67544 237 ft 13 kts 169°
2026-04-17 13:34 41.23993 -8.67520 237 ft 13 kts 168°
2026-04-17 13:34 41.23908 -8.67498 237 ft 12 kts 169°
2026-04-17 13:34 41.23836 -8.67479 238 ft 10 kts 169°
2026-04-17 13:35 41.23768 -8.67459 238 ft 10 kts 156°
2026-04-17 13:35 41.23724 -8.67398 239 ft 7 kts 126°
2026-04-17 13:35 41.23710 -8.67356 241 ft 3 kts 92°
2026-04-17 13:35 41.23714 -8.67332 242 ft 3 kts 70°
2026-04-17 13:36 41.23720 -8.67313 243 ft 2 kts 69°
2026-04-17 13:36 41.23725 -8.67295 244 ft 4 kts 69°
2026-04-17 13:36 41.23731 -8.67273 244 ft 1 kts 69°
2026-04-17 13:36 41.23732 -8.67271 244 ft 0 kts 69°